,,,PA_Meas_PMT16A,,PR_Meas_QMR101_102,,RH_Meas_QMH101,,SR_Meas_QMS101,,TA_Meas_QMH101,,GenWind,,GenWind,
date,time,status,PA,status,PR,status,RH,status,SR,status,TA,status,DirAvg,status,SpdAvg,
2011-03-22, 00:00:04,VALID,1003.39,VALID,0,INVALID,163.693,VALID,0,VALID,24.4628,VALID,216,VALID,0.771875,
2011-03-22, 00:01:04,VALID,1003.37,VALID,0,INVALID,163.701,VALID,0,VALID,24.422,VALID,215,VALID,0.206641,
2011-03-22, 00:02:04,VALID,1003.34,VALID,0,INVALID,163.685,VALID,0,VALID,24.4238,VALID,215,VALID,0.0105469,
2011-03-22, 00:03:04,VALID,1003.34,VALID,0,INVALID,163.693,VALID,0,VALID,24.422,VALID,203,VALID,0.0117188,
2011-03-22, 00:04:04,VALID,1003.31,VALID,0,INVALID,163.723,VALID,0,VALID,24.4646,VALID,284,VALID,0.604297,
2011-03-22, 00:05:04,VALID,1003.29,VALID,0,INVALID,163.701,VALID,0,VALID,24.4238,VALID,286,VALID,0,
2011-03-22, 00:06:04,VALID,1003.27,VALID,0,INVALID,163.701,VALID,0,VALID,24.4238,VALID,12,VALID,0.496484,
2011-03-22, 00:07:04,VALID,1003.29,VALID,0,INVALID,163.693,VALID,0,VALID,24.4238,VALID,7,VALID,0.627734,
2011-03-22, 00:08:04,VALID,1003.27,VALID,0,INVALID,163.701,VALID,0,VALID,24.4043,VALID,3,VALID,0.855469,
2011-03-22, 00:09:04,VALID,1003.22,VALID,0,INVALID,163.678,VALID,0,VALID,24.4043,VALID,17,VALID,0.808984,
2011-03-22, 00:10:04,VALID,1003.23,VALID,0,INVALID,163.723,VALID,0,VALID,24.3849,VALID,26,VALID,0.702734,
2011-03-22, 00:11:04,VALID,1003.2,VALID,0,INVALID,163.701,VALID,0,VALID,24.3849,VALID,21,VALID,0.964453,
2011-03-22, 00:12:05,VALID,1003.16,VALID,0,INVALID,163.685,VALID,0,VALID,24.3459,VALID,355,VALID,0.791016,
2011-03-22, 00:13:05,VALID,1003.14,VALID,0,INVALID,163.716,VALID,0,VALID,24.3283,VALID,2,VALID,0.664844,
2011-03-22, 00:14:05,VALID,1003.13,VALID,0,INVALID,163.723,VALID,0,VALID,24.307,VALID,346,VALID,0.632422,
2011-03-22, 00:15:05,VALID,1003.12,VALID,0,INVALID,163.708,VALID,0,VALID,24.2662,VALID,357,VALID,0.565625,
2011-03-22, 00:16:05,VALID,1003.09,VALID,0,INVALID,163.708,VALID,0,VALID,24.307,VALID,352,VALID,0.332031,
2011-03-22, 00:17:05,VALID,1003.12,VALID,0,INVALID,163.739,VALID,0,VALID,24.2875,VALID,352,VALID,0.244531,
2011-03-22, 00:18:05,VALID,1003.11,VALID,0,INVALID,163.723,VALID,0,VALID,24.2857,VALID,352,VALID,0.437891,
2011-03-22, 00:19:05,VALID,1003.08,VALID,0,INVALID,163.723,VALID,0,VALID,24.2875,VALID,358,VALID,0.560156,
2011-03-22, 00:20:05,VALID,1003.06,VALID,0,INVALID,163.723,VALID,0,VALID,24.2662,VALID,358,VALID,0.296484,
2011-03-22, 00:21:05,VALID,1003.03,VALID,0,INVALID,163.723,VALID,0,VALID,24.307,VALID,358,VALID,0.340234,
2011-03-22, 00:22:05,VALID,1003,VALID,0,INVALID,163.731,VALID,0,VALID,24.2662,VALID,358,VALID,0.00195313,
2011-03-22, 00:23:05,VALID,1002.96,VALID,0,INVALID,163.708,VALID,0.100563,VALID,24.2857,VALID,358,VALID,0,
2011-03-22, 00:24:05,VALID,1002.96,VALID,0,INVALID,163.693,VALID,0,VALID,24.2857,VALID,358,VALID,0,
2011-03-22, 00:25:05,VALID,1002.89,VALID,0,INVALID,163.716,VALID,0,VALID,24.2857,VALID,358,VALID,0,
2011-03-22, 00:26:05,VALID,1002.86,VALID,0,INVALID,163.701,VALID,0,VALID,24.2662,VALID,358,VALID,0,
2011-03-22, 00:27:05,VALID,1002.86,VALID,0,INVALID,163.701,VALID,0,VALID,24.2857,VALID,358,VALID,0,
2011-03-22, 00:28:05,VALID,1002.81,VALID,0,INVALID,163.708,VALID,0,VALID,24.2857,VALID,358,VALID,0,
2011-03-22, 00:29:05,VALID,1002.8,VALID,0,INVALID,163.693,VALID,0.100563,VALID,24.2662,VALID,358,VALID,0,
2011-03-22, 00:30:05,VALID,1002.76,VALID,0,INVALID,163.701,VALID,0.100563,VALID,24.2857,VALID,358,VALID,0,
2011-03-22, 00:31:05,VALID,1002.74,VALID,0,INVALID,163.723,VALID,0.100563,VALID,24.2875,VALID,358,VALID,0,
2011-03-22, 00:32:05,VALID,1002.71,VALID,0,INVALID,163.716,VALID,0,VALID,24.2662,VALID,358,VALID,0,
2011-03-22, 00:33:05,VALID,1002.69,VALID,0,INVALID,163.723,VALID,0,VALID,24.2468,VALID,358,VALID,0,
2011-03-22, 00:34:05,VALID,1002.66,VALID,0,INVALID,163.708,VALID,0,VALID,24.2273,VALID,358,VALID,0,
2011-03-22, 00:35:05,VALID,1002.64,VALID,0,INVALID,163.708,VALID,0,VALID,24.2291,VALID,12,VALID,0,
2011-03-22, 00:36:05,VALID,1002.63,VALID,0,INVALID,163.716,VALID,0,VALID,24.1884,VALID,24,VALID,0,
2011-03-22, 00:37:05,VALID,1002.6,VALID,0,INVALID,163.716,VALID,0,VALID,24.1884,VALID,24,VALID,0,
2011-03-22, 00:38:05,VALID,1002.61,VALID,0,INVALID,163.708,VALID,0.100563,VALID,24.1884,VALID,55,VALID,0,
2011-03-22, 00:39:05,VALID,1002.6,VALID,0,INVALID,163.708,VALID,0,VALID,24.1884,VALID,55,VALID,0,
2011-03-22, 00:40:05,VALID,1002.6,VALID,0,INVALID,163.723,VALID,0.100563,VALID,24.2078,VALID,55,VALID,0,
2011-03-22, 00:41:05,VALID,1002.6,VALID,0,INVALID,163.716,VALID,0.100563,VALID,24.1671,VALID,49,VALID,0,
2011-03-22, 00:42:05,VALID,1002.61,VALID,0,INVALID,163.731,VALID,0,VALID,24.2078,VALID,48,VALID,0,
2011-03-22, 00:43:05,VALID,1002.62,VALID,0,INVALID,163.708,VALID,0,VALID,24.2078,VALID,48,VALID,0,
2011-03-22, 00:44:05,VALID,1002.57,VALID,0,INVALID,163.731,VALID,0,VALID,24.2078,VALID,59,VALID,0,
2011-03-22, 00:45:05,VALID,1002.58,VALID,0,INVALID,163.716,VALID,0.100563,VALID,24.2078,VALID,70,VALID,0,
2011-03-22, 00:46:05,VALID,1002.56,VALID,0,INVALID,163.716,VALID,0,VALID,24.2078,VALID,70,VALID,0,
2011-03-22, 00:47:05,VALID,1002.55,VALID,0,INVALID,163.723,VALID,0,VALID,24.2078,VALID,70,VALID,0,
2011-03-22, 00:48:05,VALID,1002.52,VALID,0,INVALID,163.716,VALID,0.100563,VALID,24.2078,VALID,70,VALID,0,
2011-03-22, 00:49:05,VALID,1002.53,VALID,0,INVALID,163.708,VALID,0,VALID,24.2273,VALID,74,VALID,0,
2011-03-22, 00:50:05,VALID,1002.51,VALID,0,INVALID,163.708,VALID,0,VALID,24.2291,VALID,75,VALID,0,
2011-03-22, 00:51:05,VALID,1002.5,VALID,0,INVALID,163.716,VALID,0,VALID,24.2078,VALID,72,VALID,0.250781,
2011-03-22, 00:52:05,VALID,1002.46,VALID,0,INVALID,163.708,VALID,0,VALID,24.2291,VALID,70,VALID,0.326953,
2011-03-22, 00:53:05,VALID,1002.49,VALID,0,INVALID,163.739,VALID,0,VALID,24.2078,VALID,70,VALID,0.0636719,
2011-03-22, 00:54:05,VALID,1002.44,VALID,0,INVALID,163.708,VALID,0,VALID,24.2078,VALID,70,VALID,0,
2011-03-22, 00:55:05,VALID,1002.4,VALID,0,INVALID,163.723,VALID,0,VALID,24.2273,VALID,70,VALID,0.448828,
2011-03-22, 00:56:05,VALID,1002.38,VALID,0,INVALID,163.731,VALID,0,VALID,24.2273,VALID,70,VALID,0.476563,
2011-03-22, 00:57:05,VALID,1002.37,VALID,0,INVALID,163.701,VALID,0,VALID,24.2273,VALID,69,VALID,0.454297,
2011-03-22, 00:58:05,VALID,1002.33,VALID,0,INVALID,163.693,VALID,0,VALID,24.2273,VALID,69,VALID,0.5125,
2011-03-22, 00:59:05,VALID,1002.32,VALID,0,INVALID,163.716,VALID,0,VALID,24.2468,VALID,69,VALID,0.354297,
2011-03-22, 01:00:05,VALID,1002.32,VALID,0,INVALID,163.723,VALID,0,VALID,24.2468,VALID,69,VALID,0.291016,
2011-03-22, 01:01:05,VALID,1002.34,VALID,0,INVALID,163.723,VALID,0,VALID,24.2255,VALID,69,VALID,0.0742188,
2011-03-22, 01:02:05,VALID,1002.31,VALID,0,INVALID,163.708,VALID,0,VALID,24.2662,VALID,69,VALID,0.105078,
2011-03-22, 01:03:05,VALID,1002.3,VALID,0,INVALID,163.708,VALID,0,VALID,24.2662,VALID,69,VALID,0,
2011-03-22, 01:04:05,VALID,1002.28,VALID,0,INVALID,163.678,VALID,0,VALID,24.2468,VALID,69,VALID,0.0117188,
2011-03-22, 01:05:05,VALID,1002.25,VALID,0,INVALID,163.716,VALID,0,VALID,24.2468,VALID,69,VALID,0.0867188,
2011-03-22, 01:06:05,VALID,1002.21,VALID,0,INVALID,163.701,VALID,0,VALID,24.2468,VALID,69,VALID,0.0140625,
2011-03-22, 01:07:05,VALID,1002.22,VALID,0,INVALID,163.701,VALID,0,VALID,24.2875,VALID,69,VALID,0.0957031,
2011-03-22, 01:08:05,VALID,1002.19,VALID,0,INVALID,163.708,VALID,0,VALID,24.2857,VALID,69,VALID,0.000390625,
2011-03-22, 01:09:05,VALID,1002.2,VALID,0,INVALID,163.708,VALID,0,VALID,24.2857,VALID,69,VALID,0.174219,
2011-03-22, 01:10:05,VALID,1002.16,VALID,0,INVALID,163.723,VALID,0,VALID,24.307,VALID,69,VALID,0.314063,
2011-03-22, 01:11:05,VALID,1002.14,VALID,0,INVALID,163.716,VALID,0,VALID,24.2857,VALID,69,VALID,0.25,
2011-03-22, 01:12:05,VALID,1002.11,VALID,0,INVALID,163.723,VALID,0,VALID,24.2839,VALID,69,VALID,0.239063,
2011-03-22, 01:13:05,VALID,1002.09,VALID,0,INVALID,163.693,VALID,0,VALID,24.307,VALID,69,VALID,0.151562,
2011-03-22, 01:14:05,VALID,1002.08,VALID,0,INVALID,163.701,VALID,0,VALID,24.307,VALID,69,VALID,0,
2011-03-22, 01:15:05,VALID,1002.08,VALID,0,INVALID,163.708,VALID,0.100563,VALID,24.2857,VALID,69,VALID,0,
2011-03-22, 01:16:05,VALID,1002.08,VALID,0,INVALID,163.701,VALID,0.100563,VALID,24.2449,VALID,69,VALID,0,
2011-03-22, 01:17:05,VALID,1002.12,VALID,0,INVALID,163.723,VALID,0,VALID,24.2662,VALID,69,VALID,0,
2011-03-22, 01:18:05,VALID,1002.09,VALID,0,INVALID,163.708,VALID,0,VALID,24.2449,VALID,69,VALID,0,
2011-03-22, 01:19:05,VALID,1002.08,VALID,0,INVALID,163.731,VALID,0.100563,VALID,24.2662,VALID,69,VALID,0,
2011-03-22, 01:20:05,VALID,1002.07,VALID,0,INVALID,163.716,VALID,0.100563,VALID,24.2857,VALID,69,VALID,0,
2011-03-22, 01:21:05,VALID,1002.06,VALID,0,INVALID,163.685,VALID,0,VALID,24.2857,VALID,69,VALID,0,
2011-03-22, 01:22:05,VALID,1002.05,VALID,0,INVALID,163.708,VALID,0,VALID,24.307,VALID,69,VALID,0,
2011-03-22, 01:23:05,VALID,1002.04,VALID,0,INVALID,163.701,VALID,0.100563,VALID,24.2857,VALID,69,VALID,0,
2011-03-22, 01:24:05,VALID,1002,VALID,0,INVALID,163.716,VALID,0,VALID,24.2857,VALID,69,VALID,0,
2011-03-22, 01:25:05,VALID,1002.01,VALID,0,INVALID,163.701,VALID,0.100563,VALID,24.3052,VALID,69,VALID,0,
2011-03-22, 01:26:05,VALID,1001.95,VALID,0,INVALID,163.701,VALID,0,VALID,24.3052,VALID,69,VALID,0,
2011-03-22, 01:27:05,VALID,1001.96,VALID,0,INVALID,163.693,VALID,0,VALID,24.3246,VALID,69,VALID,0,
2011-03-22, 01:28:05,VALID,1001.95,VALID,0,INVALID,163.701,VALID,0,VALID,24.3246,VALID,66,VALID,0,
2011-03-22, 01:29:05,VALID,1001.96,VALID,0,INVALID,163.723,VALID,0.100563,VALID,24.3441,VALID,65,VALID,0,
2011-03-22, 01:30:05,VALID,1001.92,VALID,0,INVALID,163.716,VALID,0,VALID,24.3441,VALID,64,VALID,0,
2011-03-22, 01:31:05,VALID,1001.9,VALID,0,INVALID,163.708,VALID,0.100563,VALID,24.3246,VALID,62,VALID,0,
2011-03-22, 01:32:05,VALID,1001.88,VALID,0,INVALID,163.716,VALID,0,VALID,24.3246,VALID,40,VALID,0,
2011-03-22, 01:33:05,VALID,1001.88,VALID,0,INVALID,163.708,VALID,0.100563,VALID,24.3052,VALID,40,VALID,0,
2011-03-22, 01:34:05,VALID,1001.84,VALID,0,INVALID,163.708,VALID,0.100563,VALID,24.3246,VALID,38,VALID,0,
2011-03-22, 01:35:05,VALID,1001.85,VALID,0,INVALID,163.708,VALID,0,VALID,24.3246,VALID,38,VALID,0,
2011-03-22, 01:36:05,VALID,1001.86,VALID,0,INVALID,163.701,VALID,0,VALID,24.3246,VALID,38,VALID,0,
2011-03-22, 01:37:05,VALID,1001.83,VALID,0,INVALID,163.701,VALID,0.100563,VALID,24.3441,VALID,38,VALID,0,
2011-03-22, 01:38:05,VALID,1001.8,VALID,0,INVALID,163.708,VALID,0.100563,VALID,24.3033,VALID,38,VALID,0,
2011-03-22, 01:39:05,VALID,1001.73,VALID,0,INVALID,163.701,VALID,0,VALID,24.3441,VALID,38,VALID,0,
2011-03-22, 01:40:05,VALID,1001.74,VALID,0,INVALID,163.708,VALID,0.100563,VALID,24.3228,VALID,38,VALID,0,
2011-03-22, 01:41:05,VALID,1001.7,VALID,0,INVALID,163.708,VALID,0,VALID,24.3441,VALID,38,VALID,0,
2011-03-22, 01:42:05,VALID,1001.68,VALID,0,INVALID,163.716,VALID,0,VALID,24.3654,VALID,38,VALID,0,
2011-03-22, 01:43:05,VALID,1001.62,VALID,0,INVALID,163.708,VALID,0,VALID,24.3636,VALID,38,VALID,0,
2011-03-22, 01:44:05,VALID,1001.64,VALID,0,INVALID,163.708,VALID,0,VALID,24.3636,VALID,38,VALID,0,
2011-03-22, 01:45:05,VALID,1001.6,VALID,0,INVALID,163.716,VALID,0,VALID,24.3636,VALID,26,VALID,0,
2011-03-22, 01:46:05,VALID,1001.57,VALID,0,INVALID,163.723,VALID,0,VALID,24.3441,VALID,26,VALID,0,
2011-03-22, 01:47:05,VALID,1001.56,VALID,0,INVALID,163.685,VALID,0.100563,VALID,24.3636,VALID,26,VALID,0,
2011-03-22, 01:48:05,VALID,1001.54,VALID,0,INVALID,163.685,VALID,0,VALID,24.3441,VALID,26,VALID,0,
2011-03-22, 01:49:05,VALID,1001.53,VALID,0,INVALID,163.701,VALID,0.100563,VALID,24.3422,VALID,26,VALID,0,
2011-03-22, 01:50:05,VALID,1001.52,VALID,0,INVALID,163.708,VALID,0.100563,VALID,24.3422,VALID,23,VALID,0,
2011-03-22, 01:51:05,VALID,1001.51,VALID,0,INVALID,163.701,VALID,0,VALID,24.3441,VALID,21,VALID,0,
2011-03-22, 01:52:05,VALID,1001.49,VALID,0,INVALID,163.678,VALID,0,VALID,24.3441,VALID,21,VALID,0,
2011-03-22, 01:53:05,VALID,1001.48,VALID,0,INVALID,163.701,VALID,0,VALID,24.3441,VALID,21,VALID,0,
2011-03-22, 01:54:05,VALID,1001.47,VALID,0,INVALID,163.701,VALID,0,VALID,24.3246,VALID,5,VALID,0.602344,
2011-03-22, 01:55:05,VALID,1001.46,VALID,0,INVALID,163.716,VALID,0,VALID,24.3441,VALID,5,VALID,0.623047,
2011-03-22, 01:56:05,VALID,1001.46,VALID,0,INVALID,163.678,VALID,0.100563,VALID,24.3246,VALID,5,VALID,0.676172,
2011-03-22, 01:57:05,VALID,1001.44,VALID,0,INVALID,163.693,VALID,0,VALID,24.2839,VALID,4,VALID,0.773438,
2011-03-22, 01:58:05,VALID,1001.46,VALID,0,INVALID,163.716,VALID,0,VALID,24.3052,VALID,1,VALID,0.860937,
2011-03-22, 01:59:05,VALID,1001.46,VALID,0,INVALID,163.716,VALID,0,VALID,24.2644,VALID,358,VALID,0.606641,
2011-03-22, 02:00:05,VALID,1001.44,VALID,0,INVALID,163.685,VALID,0.100563,VALID,24.2857,VALID,358,VALID,0.630078,
2011-03-22, 02:01:05,VALID,1001.47,VALID,0,INVALID,163.716,VALID,0,VALID,24.2662,VALID,340,VALID,0.575,
2011-03-22, 02:02:05,VALID,1001.46,VALID,0,INVALID,163.716,VALID,0.100563,VALID,24.2662,VALID,345,VALID,0.763672,
2011-03-22, 02:03:05,VALID,1001.46,VALID,0,INVALID,163.723,VALID,0,VALID,24.2662,VALID,356,VALID,0.527344,
2011-03-22, 02:04:05,VALID,1001.44,VALID,0,INVALID,163.701,VALID,0,VALID,24.2255,VALID,356,VALID,0.479297,
2011-03-22, 02:05:05,VALID,1001.4,VALID,0,INVALID,163.693,VALID,0,VALID,24.2468,VALID,9,VALID,0.680469,
2011-03-22, 02:06:05,VALID,1001.42,VALID,0,INVALID,163.716,VALID,0,VALID,24.2662,VALID,360,VALID,0.525,
2011-03-22, 02:07:05,VALID,1001.41,VALID,0,INVALID,163.708,VALID,0,VALID,24.2662,VALID,360,VALID,0,
2011-03-22, 02:08:05,VALID,1001.42,VALID,0,INVALID,163.708,VALID,0,VALID,24.2662,VALID,360,VALID,0,
2011-03-22, 02:09:05,VALID,1001.4,VALID,0,INVALID,163.701,VALID,0,VALID,24.2857,VALID,360,VALID,0,
2011-03-22, 02:10:05,VALID,1001.4,VALID,0,INVALID,163.708,VALID,0,VALID,24.2857,VALID,360,VALID,0,
2011-03-22, 02:11:05,VALID,1001.4,VALID,0,INVALID,163.701,VALID,0,VALID,24.3246,VALID,87,VALID,0.752344,
2011-03-22, 02:12:05,VALID,1001.43,VALID,0,INVALID,163.685,VALID,0,VALID,24.3849,VALID,87,VALID,0.230469,
2011-03-22, 02:13:05,VALID,1001.38,VALID,0,INVALID,163.701,VALID,0,VALID,24.4025,VALID,87,VALID,0.460547,
2011-03-22, 02:14:05,VALID,1001.39,VALID,0,INVALID,163.678,VALID,0,VALID,24.4414,VALID,72,VALID,0.224609,
2011-03-22, 02:15:05,VALID,1001.41,VALID,0,INVALID,163.678,VALID,0,VALID,24.4998,VALID,72,VALID,0.0539063,
2011-03-22, 02:16:05,VALID,1001.39,VALID,0,INVALID,163.701,VALID,0,VALID,24.4998,VALID,72,VALID,0.00351562,
2011-03-22, 02:17:05,VALID,1001.39,VALID,0,INVALID,163.701,VALID,0,VALID,24.5193,VALID,91,VALID,0.169922,
2011-03-22, 02:18:05,VALID,1001.41,VALID,0,INVALID,163.708,VALID,0,VALID,24.5193,VALID,58,VALID,0.672266,
2011-03-22, 02:19:05,VALID,1001.41,VALID,0,INVALID,163.693,VALID,0,VALID,24.6556,VALID,89,VALID,0.895312,
2011-03-22, 02:20:05,VALID,1001.41,VALID,0,INVALID,163.685,VALID,0,VALID,24.6945,VALID,89,VALID,0.613672,
2011-03-22, 02:21:05,VALID,1001.41,VALID,0,INVALID,163.678,VALID,0,VALID,24.7724,VALID,97,VALID,0.624609,
2011-03-22, 02:22:05,VALID,1001.45,VALID,0,INVALID,163.67,VALID,0,VALID,24.8503,VALID,102,VALID,0.8875,
2011-03-22, 02:23:05,VALID,1001.46,VALID,0,INVALID,163.647,VALID,0,VALID,24.9087,VALID,89,VALID,0.751953,
2011-03-22, 02:24:05,VALID,1001.44,VALID,0,INVALID,163.655,VALID,0,VALID,25.0079,VALID,89,VALID,0.484375,
2011-03-22, 02:25:05,VALID,1001.44,VALID,0,INVALID,163.639,VALID,0,VALID,25.0469,VALID,102,VALID,0.930078,
2011-03-22, 02:26:05,VALID,1001.45,VALID,0,INVALID,163.655,VALID,0,VALID,25.1248,VALID,110,VALID,0.847656,
2011-03-22, 02:27:05,VALID,1001.44,VALID,0,INVALID,163.632,VALID,0,VALID,25.1229,VALID,106,VALID,0.578516,
2011-03-22, 02:28:05,VALID,1001.45,VALID,0,INVALID,163.67,VALID,0,VALID,25.1229,VALID,100,VALID,0.690234,
2011-03-22, 02:29:05,VALID,1001.43,VALID,0,INVALID,163.655,VALID,0,VALID,25.1618,VALID,102,VALID,0.976953,
2011-03-22, 02:30:05,VALID,1001.47,VALID,0,INVALID,163.639,VALID,0,VALID,25.2007,VALID,131,VALID,1.13086,
2011-03-22, 02:31:05,VALID,1001.45,VALID,0,INVALID,163.632,VALID,0,VALID,25.2981,VALID,103,VALID,1.80977,
2011-03-22, 02:32:05,VALID,1001.45,VALID,0,INVALID,163.632,VALID,0,VALID,25.3565,VALID,98,VALID,0.530859,
2011-03-22, 02:33:05,VALID,1001.43,VALID,0,INVALID,163.647,VALID,0,VALID,25.376,VALID,119,VALID,0.459766,
2011-03-22, 02:34:05,VALID,1001.4,VALID,0,INVALID,163.632,VALID,0,VALID,25.3779,VALID,107,VALID,0.724609,
2011-03-22, 02:35:05,VALID,1001.39,VALID,0,INVALID,163.624,VALID,0,VALID,25.3565,VALID,98,VALID,1.05352,
2011-03-22, 02:36:05,VALID,1001.34,VALID,0,INVALID,163.632,VALID,0,VALID,25.4169,VALID,94,VALID,1.11055,
2011-03-22, 02:37:05,VALID,1001.35,VALID,0,INVALID,163.624,VALID,0,VALID,25.4344,VALID,115,VALID,1.35156,
2011-03-22, 02:38:05,VALID,1001.35,VALID,0,INVALID,163.624,VALID,0,VALID,25.4753,VALID,93,VALID,0.746094,
2011-03-22, 02:39:05,VALID,1001.31,VALID,0,INVALID,163.632,VALID,0,VALID,25.4753,VALID,90,VALID,0.630078,
2011-03-22, 02:40:05,VALID,1001.31,VALID,0,INVALID,163.647,VALID,0,VALID,25.4558,VALID,118,VALID,1.08164,
2011-03-22, 02:41:05,VALID,1001.31,VALID,0,INVALID,163.624,VALID,0,VALID,25.4149,VALID,101,VALID,1.18477,
2011-03-22, 02:42:05,VALID,1001.29,VALID,0,INVALID,163.624,VALID,0,VALID,25.4344,VALID,105,VALID,0.743359,
2011-03-22, 02:43:05,VALID,1001.26,VALID,0,INVALID,163.624,VALID,0,VALID,25.4344,VALID,96,VALID,1.06445,
2011-03-22, 02:44:05,VALID,1001.27,VALID,0,INVALID,163.624,VALID,0,VALID,25.4344,VALID,106,VALID,0.803125,
2011-03-22, 02:45:05,VALID,1001.23,VALID,0,INVALID,163.639,VALID,0,VALID,25.4772,VALID,98,VALID,0.850781,
2011-03-22, 02:46:05,VALID,1001.23,VALID,0,INVALID,163.639,VALID,0,VALID,25.4149,VALID,82,VALID,0.999219,
2011-03-22, 02:47:05,VALID,1001.23,VALID,0,INVALID,163.617,VALID,0,VALID,25.4149,VALID,111,VALID,0.29375,
2011-03-22, 02:48:05,VALID,1001.28,VALID,0,INVALID,163.639,VALID,0,VALID,25.3546,VALID,111,VALID,0.276953,
2011-03-22, 02:49:04,VALID,1001.23,VALID,0,INVALID,163.655,VALID,0,VALID,25.3584,VALID,108,VALID,1.1,
2011-03-22, 02:50:04,VALID,1001.24,VALID,0,INVALID,163.624,VALID,0,VALID,25.3779,VALID,102,VALID,0.489844,
2011-03-22, 02:51:04,VALID,1001.21,VALID,0,INVALID,163.639,VALID,0,VALID,25.3584,VALID,101,VALID,0.589844,
2011-03-22, 02:52:04,VALID,1001.2,VALID,0,INVALID,163.632,VALID,0,VALID,25.3584,VALID,86,VALID,0.353906,
2011-03-22, 02:53:04,VALID,1001.19,VALID,0,INVALID,163.647,VALID,0,VALID,25.3176,VALID,81,VALID,0.551562,
2011-03-22, 02:54:04,VALID,1001.18,VALID,0,INVALID,163.647,VALID,0,VALID,25.3195,VALID,94,VALID,0.296875,
2011-03-22, 02:55:04,VALID,1001.17,VALID,0,INVALID,163.639,VALID,0,VALID,25.2397,VALID,95,VALID,0.348047,
2011-03-22, 02:56:04,VALID,1001.13,VALID,0,INVALID,163.624,VALID,0,VALID,25.2416,VALID,95,VALID,0.583984,
2011-03-22, 02:57:04,VALID,1001.14,VALID,0,INVALID,163.662,VALID,0,VALID,25.1813,VALID,95,VALID,0.0382813,
2011-03-22, 02:58:04,VALID,1001.14,VALID,0,INVALID,163.914,VALID,0,VALID,25.1034,VALID,95,VALID,0.538672,
2011-03-22, 02:59:04,VALID,1001.11,VALID,0,INVALID,163.662,VALID,0,VALID,25.1034,VALID,95,VALID,0.302344,
2011-03-22, 03:00:04,VALID,1001.13,VALID,0,INVALID,163.67,VALID,0,VALID,25.0644,VALID,95,VALID,0.408984,
2011-03-22, 03:01:04,VALID,1001.14,VALID,0,INVALID,163.624,VALID,0,VALID,25.0469,VALID,95,VALID,0.136328,
2011-03-22, 03:02:04,VALID,1001.13,VALID,0,INVALID,163.639,VALID,0,VALID,25.0079,VALID,95,VALID,0.501172,
2011-03-22, 03:03:04,VALID,1001.17,VALID,0,INVALID,163.685,VALID,0,VALID,24.9885,VALID,53,VALID,0.482422,
2011-03-22, 03:04:04,VALID,1001.17,VALID,0,INVALID,163.662,VALID,0,VALID,24.9671,VALID,53,VALID,0.285156,
2011-03-22, 03:05:04,VALID,1001.19,VALID,0,INVALID,163.67,VALID,0,VALID,24.9476,VALID,55,VALID,0.499219,
2011-03-22, 03:06:04,VALID,1001.15,VALID,0,INVALID,163.639,VALID,0.100563,VALID,24.969,VALID,71,VALID,0.476563,
2011-03-22, 03:07:04,VALID,1001.14,VALID,0,INVALID,163.685,VALID,0,VALID,24.9495,VALID,66,VALID,0.447266,
2011-03-22, 03:08:04,VALID,1001.15,VALID,0,INVALID,163.639,VALID,0,VALID,24.9282,VALID,59,VALID,0.28125,
2011-03-22, 03:09:04,VALID,1001.15,VALID,0,INVALID,163.662,VALID,0,VALID,24.9087,VALID,59,VALID,0.326172,
2011-03-22, 03:10:04,VALID,1001.15,VALID,0,INVALID,163.678,VALID,0,VALID,24.9087,VALID,59,VALID,0.274219,
2011-03-22, 03:11:04,VALID,1001.14,VALID,0,INVALID,163.67,VALID,0,VALID,24.8892,VALID,59,VALID,0.540625,
2011-03-22, 03:12:04,VALID,1001.13,VALID,0,INVALID,163.662,VALID,0,VALID,24.8911,VALID,59,VALID,0.481641,
2011-03-22, 03:13:04,VALID,1001.11,VALID,0,INVALID,163.876,VALID,0,VALID,24.8716,VALID,59,VALID,0.458594,
2011-03-22, 03:14:04,VALID,1001.16,VALID,0,INVALID,163.67,VALID,0,VALID,24.8522,VALID,59,VALID,0.351953,
2011-03-22, 03:15:04,VALID,1001.12,VALID,0,INVALID,163.678,VALID,0,VALID,24.8132,VALID,59,VALID,0.344141,
2011-03-22, 03:16:04,VALID,1001.18,VALID,0,INVALID,163.662,VALID,0,VALID,24.7937,VALID,59,VALID,0.451172,
2011-03-22, 03:17:04,VALID,1001.21,VALID,0,INVALID,163.678,VALID,0,VALID,24.7548,VALID,59,VALID,0.314063,
2011-03-22, 03:18:04,VALID,1001.21,VALID,0,INVALID,163.67,VALID,0,VALID,24.6945,VALID,59,VALID,0.351563,
2011-03-22, 03:19:04,VALID,1001.24,VALID,0,INVALID,163.685,VALID,0,VALID,24.6769,VALID,59,VALID,0.333984,
2011-03-22, 03:20:04,VALID,1001.26,VALID,0,INVALID,163.678,VALID,0,VALID,24.6361,VALID,59,VALID,0.448828,
2011-03-22, 03:21:04,VALID,1001.26,VALID,0,INVALID,163.685,VALID,0,VALID,24.5972,VALID,59,VALID,0.280078,
2011-03-22, 03:22:04,VALID,1001.26,VALID,0,INVALID,163.693,VALID,0,VALID,24.5777,VALID,68,VALID,0,
2011-03-22, 03:23:04,VALID,1001.26,VALID,0,INVALID,163.67,VALID,0,VALID,24.5388,VALID,68,VALID,0,
2011-03-22, 03:24:04,VALID,1001.25,VALID,0,INVALID,163.708,VALID,0,VALID,24.5212,VALID,68,VALID,0,
2011-03-22, 03:25:04,VALID,1001.24,VALID,0,INVALID,163.693,VALID,0,VALID,24.4804,VALID,68,VALID,0,
2011-03-22, 03:26:04,VALID,1001.21,VALID,0,INVALID,163.708,VALID,0,VALID,24.5017,VALID,65,VALID,0,
2011-03-22, 03:27:04,VALID,1001.22,VALID,0,INVALID,163.716,VALID,0,VALID,24.4804,VALID,50,VALID,0,
2011-03-22, 03:28:04,VALID,1001.24,VALID,0,INVALID,163.914,VALID,0,VALID,24.4998,VALID,50,VALID,0,
2011-03-22, 03:29:04,VALID,1001.24,VALID,0,INVALID,163.708,VALID,0,VALID,24.5017,VALID,50,VALID,0,
2011-03-22, 03:30:04,VALID,1001.23,VALID,0,INVALID,163.716,VALID,0,VALID,24.5193,VALID,56,VALID,0,
2011-03-22, 03:31:04,VALID,1001.24,VALID,0,INVALID,163.678,VALID,0,VALID,24.5193,VALID,57,VALID,0,
2011-03-22, 03:32:04,VALID,1001.24,VALID,0,INVALID,163.662,VALID,0,VALID,24.5388,VALID,57,VALID,0,
2011-03-22, 03:33:04,VALID,1001.23,VALID,0,INVALID,163.685,VALID,0,VALID,24.5777,VALID,64,VALID,0.332812,
2011-03-22, 03:34:04,VALID,1001.24,VALID,0,INVALID,163.716,VALID,0,VALID,24.6185,VALID,64,VALID,0.125,
2011-03-22, 03:35:04,VALID,1001.22,VALID,0,INVALID,163.678,VALID,0,VALID,24.6166,VALID,64,VALID,0.305859,
2011-03-22, 03:36:04,VALID,1001.26,VALID,0,INVALID,163.685,VALID,0,VALID,24.6166,VALID,64,VALID,0.214062,
2011-03-22, 03:37:04,VALID,1001.24,VALID,0,INVALID,163.685,VALID,0,VALID,24.5972,VALID,64,VALID,0.325391,
2011-03-22, 03:38:04,VALID,1001.24,VALID,0,INVALID,163.678,VALID,0,VALID,24.6185,VALID,63,VALID,0.359766,
2011-03-22, 03:39:04,VALID,1001.24,VALID,0,INVALID,163.678,VALID,0,VALID,24.6166,VALID,59,VALID,0.463672,
2011-03-22, 03:40:04,VALID,1001.26,VALID,0,INVALID,163.701,VALID,0,VALID,24.6166,VALID,59,VALID,0.313281,
2011-03-22, 03:41:04,VALID,1001.23,VALID,0,INVALID,163.678,VALID,0,VALID,24.6166,VALID,58,VALID,0.311719,
2011-03-22, 03:42:04,VALID,1001.22,VALID,0,INVALID,163.655,VALID,0,VALID,24.6574,VALID,58,VALID,0.208984,
2011-03-22, 03:43:04,VALID,1001.23,VALID,0,INVALID,163.891,VALID,0,VALID,24.6166,VALID,58,VALID,0.255078,
2011-03-22, 03:44:04,VALID,1001.21,VALID,0,INVALID,163.701,VALID,0,VALID,24.6166,VALID,58,VALID,0.162891,
2011-03-22, 03:45:04,VALID,1001.17,VALID,0,INVALID,163.701,VALID,0,VALID,24.638,VALID,58,VALID,0.0191406,